Volver al catálogo

COSMOS 1636

ActivoMilitarLEO
NORAD 15618·PAYLOAD·🇷🇺 Russia

Lanzado Mar 21, 1985 desde Plesetsk Cosmodrome

Loading…

Próximos Pases (próximas 24 horas)

TLE

ActualizadoSource: Space-Track

Época: Sep 14, 2026, 10:06 UTC

1 15618U 85023B   26257.42122843 -.00000027  00000-0 -81812-4 0  9992
2 15618  74.0536  62.0059 0013160 286.2633  98.6751 12.45359144885983

Sigue COSMOS 1636 en tiempo real con AllMySat

Download on the App Store